Flag for Canada Weather past 2 weeks in Cranbrook, British Columbia, Canada

Now
72 °F

Scattered clouds.


Feels Like: 77 °F
Forecast: 53 / 78 °F
Wind: 10 mph from Northeast

Location: Cranbrook

Current Time: Aug 4, 2015 at 8:58:19 PM

Latest Report: Aug 4, 2015 at 8:00 PM


Visibility: 25 mi

Pressure: 29.80 "Hg (26.75 "Hg at 933m altitude)

Humidity: 41%

Dew point: 46 °F

Location of CranbrookLocation

Historic Weather in Cranbrook — Graph

°F

Cranbrook temperature yesterday

Maximum temperature yesterday: 91 °F (at 5:00 PM)
Minimum temperature yesterday: 61 °F (at 6:00 AM)
Average temperature yesterday: 76 °F

Past Weeks' High & Low Weather Summary

 TemperatureHumidityPressure
High95 °F (Jul 31, 5:00 PM)100% (Jul 26, 1:00 AM)30.25 "Hg (Jul 26, 1:00 AM)
Low41 °F (Jul 28, 5:00 AM)5% (Aug 1, 5:00 PM)29.66 "Hg (Jul 22, 12:00 AM)
Average68 °F46%29.93 "Hg
* Reported Jul 20 8:00 PM — Aug 4 8:00 PM, Cranbrook, Weather by CustomWeather, © 2015

Note: Actual official high and low records may vary slightly from our data, if they occured in-between our weather recording intervals... More about our weather records

Advertising

Cranbrook weather history for previous 24 hours

 ConditionsComfort  
Time TempWeatherWind HumidityBarometerVisibility
8:00 PM
Tue, Aug 4
72 °FScattered clouds.10 mph41%29.80 "Hg25 mi
7:00 PM75 °FScattered clouds.14 mph39%29.80 "Hg25 mi
6:00 PM81 °FBroken clouds.8 mph28%29.80 "Hg25 mi
5:00 PM81 °FPartly sunny.12 mph28%29.80 "Hg25 mi
4:00 PM86 °FBroken clouds.17 mph24%29.77 "Hg25 mi
3:00 PM86 °FBroken clouds.13 mph22%29.78 "Hg25 mi
2:00 PM82 °FBroken clouds.14 mph25%29.80 "Hg25 mi
1:00 PM81 °FBroken clouds.16 mph23%29.81 "Hg25 mi
12:00 PM79 °FBroken clouds.10 mph39%29.83 "Hg25 mi
11:00 AM75 °FScattered clouds.9 mph44%29.85 "Hg25 mi
10:00 AM70 °FPassing clouds.6 mph57%29.87 "Hg25 mi
9:00 AM66 °FScattered clouds.3 mph64%29.88 "Hg15 mi
8:00 AM63 °FPassing clouds.2 mph77%29.88 "Hg15 mi
7:00 AM59 °FPassing clouds.3 mph82%29.86 "Hg20 mi
6:00 AM59 °FPassing clouds.2 mph82%29.85 "Hg20 mi
5:00 AM63 °FPassing clouds.3 mph73%29.84 "Hg15 mi
4:00 AM64 °FMostly cloudy.2 mph68%29.85 "Hg15 mi
3:00 AM64 °FPassing clouds.3 mph68%29.85 "Hg15 mi
2:00 AM64 °FMostly cloudy.8 mph68%29.86 "Hg15 mi
1:54 AM64 °FMostly cloudy.9 mph73%29.86 "Hg15 mi
1:00 AM68 °FLight rain. Mostly cloudy.12 mph56%29.86 "Hg10 mi
12:00 AM72 °FPartly cloudy.17 mph47%29.84 "Hg10 mi
11:00 PM
Mon, Aug 3
75 °FBroken clouds.14 mph36%29.81 "Hg12 mi
10:00 PM77 °FBroken clouds.8 mph30%29.77 "Hg12 mi
9:00 PM81 °FPartly sunny.10 mph26%29.73 "Hg12 mi
8:00 PM84 °FPartly sunny.10 mph22%29.72 "Hg12 mi
Weather by CustomWeather, © 2015

See weather overviewHow to use our weather pages